Chillicothe, MO

3:03 PM CST on February 14, 2016 (GMT -0600)
Chillicothe

Weather History for KCDJ - January, 2013

Change the Weather History Date:

Friday, January 25, 2013

  Actual Average (KIRK) Record (KIRK)
Temperature  
Mean Temperature 32 °F 26 °F  
Max Temperature 48 °F 36 °F - ()
Min Temperature 16 °F 17 °F - ()
Degree Days  
Heating Degree Days 33 39  
Month to date heating degree days 975  
Since 1 July heating degree days 3318  
Cooling Degree Days 0 0  
Month to date cooling degree days 0  
Year to date cooling degree days 0  
Moisture  
Dew Point 14 °F    
Average Humidity 51    
Maximum Humidity 71    
Minimum Humidity 30    
Precipitation  
Precipitation 0.00 in 0.05 in - ()
Month to date precipitation 0.90  
Year to date precipitation 0.90  
Sea Level Pressure  
Sea Level Pressure 30.24 in    
Wind  
Wind Speed 3 mph (WNW)    
Max Wind Speed 9 mph    
Max Gust Speed -    
T = Trace of Precipitation, MM = Missing Value Source: NWS Daily Summary

Daily Weather History Graph

Daily Weather History Graph

Search for Another Location

Airport or City:

Trip Planner

Search our weather history database for the weather conditions in past years. The results will help you decide how hot, cold, wet, or windy it might be!

Date:

Astronomy

Jan. 25, 2013 Rise Set
Actual Time 7:28 AM CST 5:25 PM CST
Civil Twilight 6:59 AM CST 5:54 PM CST
Nautical Twilight 6:26 AM CST 6:27 PM CST
Astronomical Twilight 5:54 AM CST 6:59 PM CST
Moon 4:23 PM CST (1/25) 6:08 AM CST (1/25)
Length of Visible Light 10h 55m
Length of Day
9h 57m
Waxing Gibbous, 98% of the Moon is Illuminated
Jan 25
Waxing Gibbous
Jan 26
Full
Feb 3
Last Quarter
Feb 10
New
Feb 17
First Quarter

Hourly Weather History & Observations

Time (CST) Temp. Windchill Dew Point Humidity Pressure Visibility Wind Dir Wind Speed Gust Speed Precip Events Conditions
12:52 AM 24.1 °F 18.2 °F 7.0 °F 48% 30.29 in - NNE 4.6 mph - N/A   Unknown
1:52 AM 24.1 °F - 7.0 °F 48% 30.27 in - Calm Calm - N/A   Unknown
2:52 AM 24.1 °F - 8.1 °F 51% 30.27 in - Calm Calm - N/A   Unknown
3:52 AM 24.1 °F - 8.1 °F 51% 30.22 in - Calm Calm - N/A   Unknown
4:52 AM 23.0 °F - 8.1 °F 53% 30.22 in - Calm Calm - N/A   Unknown
5:52 AM 19.0 °F - 8.1 °F 62% 30.23 in - Calm Calm - N/A   Unknown
6:52 AM 16.0 °F - 8.1 °F 71% 30.24 in - Calm Calm - N/A   Unknown
7:52 AM 16.0 °F - 8.1 °F 71% 30.26 in - Calm Calm - N/A   Unknown
8:52 AM 23.0 °F 15.8 °F 9.0 °F 55% 30.25 in - SW 5.8 mph - N/A   Unknown
9:52 AM 28.0 °F 20.0 °F 10.9 °F 49% 30.25 in - West 8.1 mph - N/A   Unknown
10:52 AM 30.9 °F 24.3 °F 12.0 °F 46% 30.25 in - WNW 6.9 mph - N/A   Unknown
11:52 AM 37.0 °F 32.4 °F 14.0 °F 39% 30.24 in - West 5.8 mph - N/A   Unknown
12:52 PM 39.9 °F 34.5 °F 16.0 °F 38% 30.21 in - West 8.1 mph - N/A   Unknown
1:52 PM 46.0 °F 41.9 °F 18.0 °F 33% 30.17 in - NW 8.1 mph - N/A   Unknown
2:52 PM 46.9 °F - 18.0 °F 32% 30.18 in - West 9.2 mph - N/A   Unknown
3:52 PM 48.0 °F - 18.0 °F 30% 30.18 in - Variable 5.8 mph - N/A   Unknown
4:52 PM 45.0 °F 43.5 °F 19.0 °F 36% 30.20 in - Variable 3.5 mph - N/A   Unknown
5:52 PM 41.0 °F 39.0 °F 19.0 °F 41% 30.22 in - WNW 3.5 mph - N/A   Unknown
6:52 PM 32.0 °F 27.5 °F 19.0 °F 59% 30.25 in - WSW 4.6 mph - N/A   Unknown
7:52 PM 36.0 °F - 19.9 °F 52% 30.25 in - Calm Calm - N/A   Unknown
8:52 PM 30.9 °F - 19.9 °F 64% 30.27 in - Calm Calm - N/A   Unknown
9:52 PM 28.9 °F - 19.0 °F 67% 30.30 in - Calm Calm - N/A   Unknown
10:52 PM 30.0 °F 26.5 °F 19.9 °F 66% 30.30 in - NW 3.5 mph - N/A   Unknown
11:52 PM 30.0 °F 25.2 °F 19.9 °F 66% 30.31 in - NNW 4.6 mph - N/A   Unknown